Albuquerque Double Eagle, NM

6:16 PM MDT on June 26, 2017 (GMT -0600)
Double Eagle Ii

Weather History for KAEG - July, 2013

Change the Weather History Date:

Tuesday, July 2, 2013

  Actual Average (KABQ) Record (KABQ)
Temperature  
Mean Temperature 72 °F -  
Max Temperature 86 °F 93 °F 103 °F (1957)
Min Temperature 57 °F 63 °F 44 °F (1916)
Cooling Degree Days 6    
Growing Degree Days 22 (Base 50)    
Moisture  
Dew Point 46 °F    
Average Humidity 51    
Maximum Humidity 72    
Minimum Humidity 20    
Precipitation  
Precipitation 0.00 in - - ()
Sea Level Pressure  
Sea Level Pressure 30.28 in    
Wind  
Wind Speed 10 mph (South)    
Max Wind Speed 26 mph    
Max Gust Speed 23 mph    
Visibility 10 miles    
Events      
Averages and records for this station are not official NWS values.
T = Trace of Precipitation, MM = Missing Value Source: NWS Daily Summary

Daily Weather History Graph

Daily Weather History Graph

Search for Another Location

Airport or City:

Trip Planner

Search our weather history database for the weather conditions in past years. The results will help you decide how hot, cold, wet, or windy it might be!

Date:

Astronomy

Jul. 02, 2013 Rise Set
Actual Time 5:57 AM MDT 8:25 PM MDT
Civil Twilight 5:27 AM MDT 8:55 PM MDT
Nautical Twilight 4:50 AM MDT 9:31 PM MDT
Astronomical Twilight 4:10 AM MDT 10:11 PM MDT
Moon 1:55 AM MDT (7/2) 3:47 PM MDT (7/2)
Length of Visible Light 15h 27m
Length of Day
14h 28m
Waning Crescent, 26% of the Moon is Illuminated
Jul 2
Waning Crescent
Jul 8
New
Jul 15
First Quarter
Jul 22
Full
Jul 29
Last Quarter

Hourly Weather History & Observations

Time (MDT) Temp. Dew Point Humidity Pressure Visibility Wind Dir Wind Speed Gust Speed Precip Events Conditions
12:15 AM 64.4 °F 44.6 °F 49% 30.32 in 10.0 mi SSE 18.4 mph - N/A   Unknown
12:35 AM 62.6 °F 44.6 °F 52% 30.33 in 10.0 mi SSE 13.8 mph - N/A   Unknown
12:55 AM 62.6 °F 44.6 °F 52% 30.33 in 10.0 mi SSE 13.8 mph - N/A   Unknown
1:15 AM 62.6 °F 46.4 °F 55% 30.33 in 10.0 mi SSE 10.4 mph - N/A   Unknown
1:35 AM 60.8 °F 46.4 °F 59% 30.33 in 10.0 mi SSW 8.1 mph - N/A   Unknown
1:55 AM 62.6 °F 46.4 °F 55% 30.33 in 10.0 mi SSW 9.2 mph - N/A   Unknown
2:15 AM 62.6 °F 46.4 °F 55% 30.34 in 10.0 mi SSW 9.2 mph - N/A   Unknown
2:35 AM 62.6 °F 46.4 °F 55% 30.34 in 10.0 mi SW 5.8 mph - N/A   Unknown
2:55 AM 62.6 °F 46.4 °F 55% 30.35 in 10.0 mi WSW 5.8 mph - N/A   Unknown
3:15 AM 60.8 °F 46.4 °F 59% 30.33 in 10.0 mi WSW 5.8 mph - N/A   Unknown
3:35 AM 59.0 °F 48.2 °F 67% 30.34 in 10.0 mi WSW 4.6 mph - N/A   Unknown
3:55 AM 59.0 °F 48.2 °F 67% 30.34 in 10.0 mi Calm Calm - N/A   Unknown
4:15 AM 59.0 °F 48.2 °F 67% 30.34 in 10.0 mi Calm Calm - N/A   Unknown
4:35 AM 59.0 °F 48.2 °F 67% 30.35 in 10.0 mi Calm Calm - N/A   Unknown
4:55 AM 59.0 °F 50.0 °F 72% 30.34 in 10.0 mi Calm Calm - N/A   Unknown
5:15 AM 57.2 °F 48.2 °F 72% 30.34 in 10.0 mi Calm Calm - N/A   Unknown
5:35 AM 59.0 °F 46.4 °F 63% 30.35 in 10.0 mi Calm Calm - N/A   Unknown
8:50 AM 66.2 °F 46.4 °F 49% 30.34 in 10.0 mi Variable 5.8 mph - N/A   Scattered Clouds
9:50 AM 68.0 °F 44.6 °F 43% 30.34 in 10.0 mi Variable 5.8 mph - N/A   Scattered Clouds
10:50 AM 71.6 °F 44.6 °F 38% 30.33 in 10.0 mi Calm Calm - N/A   Scattered Clouds
11:50 AM 75.2 °F 44.6 °F 34% 30.30 in 10.0 mi South 3.5 mph - N/A   Scattered Clouds
1:50 PM 80.6 °F 42.8 °F 26% 30.23 in 10.0 mi SE 11.5 mph 19.6 mph N/A   Scattered Clouds
2:50 PM 82.4 °F 41.0 °F 23% 30.18 in 10.0 mi SSE 9.2 mph 18.4 mph N/A   Scattered Clouds
3:50 PM 86.0 °F 41.0 °F 20% 30.15 in 10.0 mi South 17.3 mph - N/A   Mostly Cloudy
4:50 PM 82.4 °F 41.0 °F 23% 30.14 in 10.0 mi SSE 8.1 mph 16.1 mph N/A   Mostly Cloudy
5:50 PM 80.6 °F 41.0 °F 24% 30.13 in 10.0 mi East 13.8 mph - N/A   Mostly Cloudy
6:50 PM 77.0 °F 39.2 °F 26% 30.17 in 10.0 mi NNE 26.5 mph - N/A   Mostly Cloudy
7:50 PM 71.6 °F 48.2 °F 43% 30.18 in 10.0 mi ESE 16.1 mph 23.0 mph N/A   Mostly Cloudy
8:50 PM 71.6 °F 48.2 °F 43% 30.19 in 10.0 mi SE 17.3 mph - N/A   Mostly Cloudy
9:50 PM 68.0 °F 50.0 °F 52% 30.22 in 10.0 mi SSE 13.8 mph - N/A   Clear
10:15 PM 66.2 °F 50.0 °F 56% 30.23 in 10.0 mi SSW 10.4 mph - N/A   Unknown
10:35 PM 64.4 °F 50.0 °F 59% 30.25 in 10.0 mi West 13.8 mph - N/A   Unknown
10:55 PM 64.4 °F 50.0 °F 59% 30.25 in 10.0 mi SSW 12.7 mph - N/A   Unknown
11:15 PM 64.4 °F 51.8 °F 64% 30.26 in 10.0 mi SE 11.5 mph - N/A   Unknown
11:35 PM 64.4 °F 51.8 °F 64% 30.27 in 10.0 mi South 10.4 mph - N/A   Unknown
11:55 PM 64.4 °F 51.8 °F 64% 30.28 in 10.0 mi SSW 9.2 mph - N/A   Unknown